Weather History for Muscle Shoals, AL

Change the Weather History Date:

Tuesday, November 19, 2013

  Actual Average Record
Temperature  
Mean Temperature 47 °F 51 °F  
Max Temperature 55 °F 62 °F 83 °F (1906)
Min Temperature 38 °F 40 °F 17 °F (1903)
Degree Days  
Heating Degree Days 18 14  
Month to date heating degree days 233 217  
Since 1 July heating degree days 363 385  
Cooling Degree Days 0 0  
Month to date cooling degree days 1 4  
Year to date cooling degree days 1895 1868  
Moisture  
Dew Point 26 °F    
Average Humidity 47    
Maximum Humidity 64    
Minimum Humidity 29    
Precipitation  
Precipitation 0.00 in 0.17 in 3.15 in (1944)
Month to date precipitation 1.38 2.67  
Year to date precipitation 48.54 45.53  
Snow  
Snow 0.00 in - - ()
Month to date snowfall 0.0  
Since 1 July snowfall 0.0  
Since 1 September snowfall 0.0  
Snow Depth 0.00 in    
Sea Level Pressure  
Sea Level Pressure 30.21 in    
Wind  
Wind Speed 7 mph (NNE)    
Max Wind Speed 16 mph    
Max Gust Speed 22 mph    
Visibility 10 miles    
Events      
T = Trace of Precipitation, MM = Missing Value Source: NWS Daily Summary

Daily Weather History Graph

Daily Weather History Graph

Search for Another Location

Airport:

Trip Planner

Search our weather history database for the weather conditions in past years. The results will help you decide how hot, cold, wet, or windy it might be!

Date:

Astronomy

Nov. 19, 2013 Rise Set
Actual Time 6:28 AM CST 4:42 PM CST
Civil Twilight 6:01 AM CST 5:10 PM CST
Nautical Twilight 5:30 AM CST 5:40 PM CST
Astronomical Twilight 5:00 AM CST 6:10 PM CST
Moon 6:34 PM CST (11/19) 8:06 AM CST (11/19)
Length of Visible Light 11h 08m
Length of Day
10h 14m
Waning Gibbous, 96% of the Moon is Illuminated
Nov 19
Waning Gibbous
Nov 25
Last Quarter
Dec 2
New
Dec 9
First Quarter
Dec 17
Full

Hourly Weather History & Observations

Time (CST) Temp. Windchill Dew Point Humidity Pressure Visibility Wind Dir Wind Speed Gust Speed Precip Events Conditions
12:53 AM 46.0 °F 43.1 °F 30.0 °F 54% 30.21 in 10.0 mi North 5.8 mph - N/A   Clear
1:53 AM 45.0 °F 41.8 °F 28.0 °F 52% 30.22 in 10.0 mi North 5.8 mph - N/A   Clear
2:53 AM 44.1 °F 42.5 °F 27.0 °F 51% 30.22 in 10.0 mi North 3.5 mph - N/A   Clear
3:53 AM 43.0 °F 40.3 °F 27.0 °F 53% 30.21 in 10.0 mi North 4.6 mph - N/A   Clear
4:53 AM 41.0 °F 39.0 °F 27.0 °F 57% 30.22 in 10.0 mi North 3.5 mph - N/A   Clear
5:53 AM 39.0 °F 36.8 °F 28.0 °F 65% 30.25 in 10.0 mi NNW 3.5 mph - N/A   Clear
6:53 AM 39.0 °F 36.8 °F 28.0 °F 65% 30.27 in 10.0 mi NNW 3.5 mph - N/A   Clear
7:53 AM 44.1 °F 40.1 °F 28.0 °F 53% 30.26 in 10.0 mi NNE 6.9 mph - N/A   Clear
8:53 AM 46.0 °F 41.4 °F 27.0 °F 47% 30.28 in 10.0 mi NNE 9.2 mph - N/A   Clear
9:53 AM 48.9 °F - 26.1 °F 41% 30.25 in 10.0 mi NE 13.8 mph 19.6 mph N/A   Clear
10:53 AM 50.0 °F - 24.1 °F 36% 30.25 in 10.0 mi NE 10.4 mph 19.6 mph N/A   Clear
11:53 AM 52.0 °F - 24.1 °F 34% 30.22 in 10.0 mi NE 10.4 mph - N/A   Clear
12:53 PM 53.1 °F - 23.0 °F 31% 30.20 in 10.0 mi ENE 11.5 mph - N/A   Clear
1:53 PM 53.1 °F - 25.0 °F 34% 30.19 in 10.0 mi North 9.2 mph - N/A   Clear
2:53 PM 52.0 °F - 23.0 °F 32% 30.17 in 10.0 mi NE 13.8 mph 19.6 mph N/A   Clear
3:53 PM 51.1 °F - 26.1 °F 38% 30.19 in 10.0 mi North 6.9 mph - N/A   Clear
4:53 PM 50.0 °F - 26.1 °F 39% 30.18 in 10.0 mi NNE 10.4 mph - N/A   Clear
5:53 PM 50.0 °F - 26.1 °F 39% 30.18 in 10.0 mi NE 5.8 mph - N/A   Clear
6:53 PM 48.0 °F - 25.0 °F 41% 30.20 in 10.0 mi ENE 4.6 mph - N/A   Clear
7:53 PM 46.9 °F - 26.1 °F 44% 30.19 in 10.0 mi NE 5.8 mph - N/A   Clear
8:53 PM 44.1 °F 40.8 °F 26.1 °F 49% 30.20 in 10.0 mi NE 5.8 mph - N/A   Clear
9:53 PM 44.1 °F 40.8 °F 26.1 °F 49% 30.19 in 10.0 mi ENE 5.8 mph - N/A   Clear
10:53 PM 43.0 °F 40.3 °F 26.1 °F 51% 30.18 in 10.0 mi ENE 4.6 mph - N/A   Clear
11:53 PM 39.9 °F 37.8 °F 27.0 °F 60% 30.17 in 10.0 mi ENE 3.5 mph - N/A   Clear